Theta_e
332 339 333 333 339 336 337 342 341 343 346 343 338 329 325 327 316 314 339 348 329 331 342 342 345 352 355 359 361 364 367 366 363 364 364 363 362 360 358 357 356 357 358 354 350 351 354 354 355 356 355 355 355 355 355 354 353 353 351 348 347 346 342 341 344 343 341 341 341 342 343 343 344 345 344 344 344 344 344 344 344 342 339 337 335 334 333
331 337 334 337 342 337 339 344 343 343 346 347 344 341 340 338 330 330 337 337 336 336 338 344 348 350 356 361 362 366 366 364 365 366 365 363 361 359 356 356 357 357 356 352 348 350 352 353 355 355 354 355 355 354 354 354 353 353 350 348 348 346 342 341 344 344 342 342 342 343 344 345 345 346 345 345 345 345 345 345 344 343 341 339 338 336 334
325 337 340 337 340 341 337 339 344 346 346 349 349 347 351 353 352 352 346 337 338 340 343 350 354 355 364 366 366 368 365 364 367 366 363 362 360 358 356 356 358 357 354 349 346 349 351 352 355 355 354 355 355 354 354 354 354 353 349 348 347 344 341 342 344 346 344 343 344 345 346 346 346 346 346 347 346 345 345 344 344 344 343 342 339 336 336
321 332 337 334 339 340 336 336 339 343 348 351 349 348 350 350 353 357 348 335 338 348 352 355 355 358 366 368 367 367 364 364 366 365 364 362 359 358 357 358 359 357 354 350 346 347 349 351 354 354 354 355 354 354 355 354 354 352 348 348 345 342 341 342 345 346 344 345 346 347 347 347 347 348 348 347 346 345 345 344 341 340 340 340 338 337 337
321 330 337 337 341 336 332 336 337 340 349 348 346 351 350 347 351 355 348 341 347 354 354 355 357 359 363 365 364 364 366 366 364 363 362 360 358 359 358 359 360 356 351 348 346 347 349 351 354 354 354 355 355 354 355 354 353 351 348 346 343 342 342 343 345 346 346 347 348 348 349 349 349 348 348 347 346 345 344 341 338 337 337 337 336 335 335
319 330 344 343 339 333 333 342 343 343 350 348 346 350 350 349 351 351 349 350 356 360 359 357 357 359 363 363 360 361 365 365 364 363 361 358 359 358 358 361 359 350 345 346 346 348 349 350 353 354 354 355 355 354 353 352 351 350 348 345 342 343 343 344 347 347 347 348 349 349 350 349 347 347 346 346 345 342 340 337 336 336 334 334 334 333 332
323 337 353 341 333 338 347 349 347 345 346 345 347 349 349 352 352 351 353 352 353 360 363 360 362 366 366 361 358 359 360 359 361 363 359 357 357 358 359 362 356 347 344 346 347 346 347 349 351 353 354 354 354 353 352 351 350 348 346 344 342 344 346 347 348 348 348 349 349 349 349 348 346 345 345 345 343 339 336 335 335 334 333 333 332 331 330
324 333 342 336 335 345 348 345 345 349 346 343 345 344 344 351 352 353 356 353 350 356 356 356 363 364 361 361 360 359 359 359 359 358 357 356 355 355 356 355 351 346 346 347 346 346 347 348 350 352 353 354 353 352 351 349 348 346 344 344 344 345 347 348 349 349 349 349 350 349 348 346 345 344 344 343 340 336 334 333 333 332 331 330 328 328 328
330 332 331 332 333 335 341 346 344 345 344 342 348 345 339 345 351 352 354 353 352 352 349 352 360 360 362 369 365 357 361 365 360 354 354 354 353 351 349 349 348 348 347 348 347 347 347 348 349 352 353 353 353 351 349 347 346 345 344 344 346 346 347 349 349 349 349 350 350 347 345 345 344 343 343 340 336 334 332 331 330 328 327 326 326 327 327
337 338 329 328 329 330 346 358 347 340 341 344 351 350 343 346 352 351 352 354 354 354 353 355 364 368 368 366 358 352 359 367 364 356 350 348 350 350 348 348 349 348 348 348 347 347 348 347 349 351 352 354 353 350 348 347 345 345 345 345 346 347 348 349 349 350 350 350 348 344 343 344 343 343 342 337 332 331 331 329 327 326 325 325 325 326 326
335 340 333 331 331 332 348 362 350 341 343 345 347 344 342 349 356 354 354 356 356 357 359 359 363 367 366 364 359 353 352 353 354 355 351 348 349 351 349 349 349 348 348 349 348 348 347 347 349 351 352 353 352 349 348 347 346 346 346 345 347 347 348 349 350 350 350 349 348 345 344 344 342 340 338 334 331 330 328 327 326 326 325 324 324 325 325
338 343 334 330 334 336 345 356 352 344 343 344 338 332 335 349 357 355 356 356 354 356 360 360 358 357 357 357 353 348 343 341 343 346 350 350 349 350 350 350 349 349 349 348 348 347 347 348 350 351 352 353 351 349 348 347 347 347 345 345 347 348 348 350 350 349 348 348 347 345 344 343 341 337 334 332 331 329 326 324 324 324 324 324 324 322 321
343 341 329 325 335 344 343 346 349 346 343 341 336 333 343 355 357 356 357 355 352 355 358 357 355 355 353 348 345 343 343 348 350 347 348 350 349 349 350 349 348 348 347 347 347 347 348 350 351 352 353 352 350 348 347 346 347 347 346 347 349 349 350 351 350 349 348 348 347 344 342 341 339 335 333 332 330 326 324 322 323 323 322 321 318 316 315
338 345 339 328 331 343 344 344 347 344 338 339 343 347 355 360 358 357 357 355 354 357 356 354 353 353 350 346 347 347 348 357 360 351 347 350 349 349 349 348 347 347 346 347 347 347 349 351 352 352 352 351 350 348 347 347 347 346 347 349 351 351 351 351 350 349 349 348 345 343 340 338 336 334 332 330 327 324 323 322 321 318 315 312 310 309 310
335 343 339 328 330 341 344 345 349 346 339 345 357 358 356 360 363 361 359 358 358 358 358 355 353 353 351 348 349 349 350 356 357 350 348 349 349 348 348 347 347 347 347 347 348 348 349 351 352 353 352 351 350 348 347 348 347 346 348 351 352 351 351 350 349 348 348 347 344 341 339 336 334 332 329 326 325 323 321 319 315 311 308 306 306 306 308
339 339 335 335 342 346 343 345 353 353 347 351 365 368 360 359 364 364 361 359 360 360 361 359 356 355 353 350 351 352 352 352 351 349 348 348 348 348 347 346 347 348 347 347 347 348 349 351 352 353 352 350 349 348 349 349 347 347 350 352 352 351 349 348 348 347 346 345 343 339 337 335 333 329 325 324 324 322 318 314 310 308 308 307 307 309 312
341 343 345 347 349 346 342 343 347 350 348 350 361 369 362 357 360 363 360 358 360 361 361 359 358 356 354 353 355 356 354 353 352 351 349 348 348 349 347 346 347 347 345 346 346 347 349 351 352 353 351 350 350 350 350 349 348 349 351 352 353 351 347 345 345 345 345 344 341 338 336 334 330 324 323 325 324 318 313 310 310 310 310 309 309 312 316
344 348 349 347 347 344 340 339 339 341 344 344 347 354 356 355 359 360 358 357 359 359 358 358 359 358 356 358 359 356 355 357 352 346 345 348 349 349 348 346 345 344 344 345 346 347 348 350 352 353 352 351 351 351 350 350 349 350 351 352 352 351 348 346 344 344 342 340 338 336 335 332 326 323 324 325 320 313 309 310 311 312 311 310 310 313 317
350 354 350 343 345 344 340 341 341 341 341 341 341 346 349 350 355 359 359 358 358 359 358 357 358 358 356 356 360 358 358 361 356 347 345 349 350 348 347 345 343 344 344 344 346 347 348 349 351 352 352 352 352 352 351 350 349 349 351 352 350 348 348 346 344 342 339 337 336 335 333 329 325 323 323 319 313 310 310 312 313 312 311 311 311 313 316
355 355 349 343 345 343 339 341 343 342 343 344 343 343 343 345 349 353 352 351 355 359 360 356 357 360 356 353 356 358 358 359 354 345 344 348 348 346 346 345 345 345 344 344 346 347 347 348 349 351 353 353 353 353 350 348 348 346 343 344 344 343 345 346 344 342 340 337 335 333 329 324 320 318 315 313 311 313 314 314 313 312 312 312 312 314 317
351 349 347 347 348 343 338 339 341 340 343 347 346 345 344 346 347 347 344 342 344 348 351 353 356 360 359 354 354 356 359 358 351 344 343 346 346 344 345 348 350 347 344 344 346 347 348 349 349 351 353 353 354 354 350 348 349 346 340 338 338 339 343 345 343 341 340 338 335 329 322 315 313 312 312 313 314 315 315 315 314 313 313 312 313 314 317
353 356 356 353 353 346 336 336 339 338 340 346 348 347 346 346 347 348 344 338 336 335 336 340 349 360 362 356 350 352 355 352 346 343 344 344 344 344 346 349 351 348 345 345 346 346 348 350 350 350 353 354 355 353 350 349 350 347 341 338 337 338 342 344 342 340 339 336 332 325 316 313 312 312 313 315 315 315 315 315 315 315 314 313 314 316 317
356 359 358 356 358 351 339 338 341 338 339 346 346 342 343 345 345 347 345 339 336 336 332 329 338 352 355 348 347 351 351 345 343 344 345 344 344 344 344 346 347 345 343 345 346 346 347 350 350 348 349 353 354 351 348 348 349 348 344 341 339 339 341 342 341 340 338 334 327 320 315 315 315 315 314 314 314 315 315 315 317 317 315 314 316 318 319
349 350 355 355 350 341 337 342 344 338 336 342 342 337 341 344 340 340 342 339 336 338 337 332 335 342 343 340 344 349 348 343 343 345 344 344 345 344 344 345 345 344 343 344 346 347 347 349 351 348 345 347 350 348 348 349 350 349 345 342 341 341 342 341 340 339 336 331 323 317 316 317 316 316 315 314 314 315 315 316 318 318 316 316 318 319 318
348 351 357 355 347 343 341 341 341 335 331 336 341 338 338 340 338 336 338 336 331 332 336 337 338 342 343 342 344 346 345 344 345 345 344 345 345 344 343 344 344 345 347 346 346 348 348 348 350 350 345 343 345 347 349 350 350 346 343 342 343 342 341 341 340 337 334 328 321 317 318 317 317 317 317 316 316 316 315 316 317 317 316 317 319 318 317
348 350 351 346 340 342 342 337 337 336 330 331 338 338 334 335 337 335 333 331 329 329 333 335 339 344 345 344 345 345 344 344 345 345 345 345 344 344 344 344 344 346 348 347 346 347 348 347 348 349 346 342 343 347 349 349 348 344 343 344 344 341 340 341 340 336 332 326 321 318 319 318 318 319 319 318 318 317 316 317 318 317 316 318 319 318 318
346 345 344 340 336 338 340 337 334 333 328 327 332 334 331 332 334 333 332 332 332 334 337 339 341 344 344 344 346 346 344 344 345 345 345 344 344 345 346 345 345 345 346 346 346 346 347 347 346 347 346 344 343 346 348 347 345 343 344 345 343 340 340 341 339 336 332 326 320 319 319 319 320 319 319 319 319 319 319 319 317 316 317 318 318 319 321
347 342 340 343 343 342 341 336 331 330 329 329 329 331 333 335 336 338 341 340 336 336 338 341 342 343 343 343 344 344 343 343 343 344 344 344 344 346 346 345 345 344 345 346 346 345 346 346 345 345 346 345 342 343 345 345 344 344 345 344 342 341 340 339 338 337 331 323 319 319 320 321 320 320 320 320 318 318 319 319 317 316 318 319 319 320 322
346 344 343 345 345 341 338 335 334 338 341 336 332 332 335 338 343 346 348 343 337 336 339 340 340 342 342 343 343 342 341 342 341 342 344 344 345 345 345 345 345 345 345 345 345 345 345 345 345 346 347 345 342 341 343 344 343 343 344 342 340 339 338 336 335 333 326 319 319 320 321 321 320 319 320 318 316 317 318 317 316 317 319 319 320 321 322
344 345 348 349 345 341 342 342 346 351 349 343 341 340 337 339 344 348 345 340 337 338 338 337 338 340 341 341 343 343 342 342 342 342 343 344 344 345 345 345 345 345 344 344 344 344 345 345 345 348 349 346 342 341 344 344 342 341 341 340 338 337 335 332 328 325 321 319 321 321 320 319 318 318 317 317 317 317 317 316 317 319 320 320 320 321 321
345 345 349 352 350 347 347 348 351 353 351 347 348 347 343 341 344 345 343 341 339 337 337 336 336 338 339 340 341 342 342 342 343 342 343 344 344 345 346 345 344 345 344 343 343 344 344 344 346 349 350 346 342 342 344 343 342 341 340 337 335 332 328 325 322 321 320 320 321 320 318 317 317 317 317 317 317 317 316 317 319 320 320 320 320 319 319
347 344 342 346 349 349 349 349 351 354 353 350 349 348 344 342 342 342 341 340 338 337 336 336 336 338 338 339 340 341 341 341 341 342 343 344 344 345 346 345 345 345 344 344 344 344 344 344 346 348 348 344 341 341 343 343 341 340 336 333 329 324 322 322 322 321 321 321 319 318 317 317 316 317 317 316 317 317 316 317 319 320 320 320 320 318 317
345 343 341 345 347 347 348 350 350 351 351 348 345 341 336 335 336 337 337 337 336 335 336 336 336 338 338 338 339 340 339 340 341 341 342 344 344 345 345 345 345 345 344 343 343 344 344 345 346 347 347 342 337 337 339 339 337 333 329 326 324 322 322 322 322 320 320 320 319 318 318 316 317 317 316 315 316 316 316 317 319 320 320 320 319 318 318
339 343 348 351 346 342 344 350 350 349 348 343 338 334 333 334 335 335 335 336 336 336 337 338 338 338 338 338 339 339 338 340 341 341 342 343 344 345 345 345 344 345 344 343 343 342 342 344 347 346 343 337 333 333 333 331 328 326 324 323 322 322 322 322 321 320 320 320 319 318 318 316 317 316 315 314 316 316 316 318 319 320 320 321 320 319 320
332 336 340 339 335 334 337 342 344 345 345 344 341 338 336 336 336 336 337 338 338 338 339 339 339 339 339 338 338 338 338 339 340 340 341 343 344 344 345 345 344 344 342 342 342 340 338 342 345 342 335 330 329 329 328 326 325 324 323 322 321 321 321 321 320 319 319 320 320 319 317 316 316 316 314 314 315 315 317 318 319 320 321 321 321 322 322
335 341 341 336 333 334 334 335 337 338 339 339 340 338 336 336 337 338 338 339 339 339 339 339 338 338 337 337 338 338 338 338 338 339 340 342 343 344 345 344 343 342 340 340 340 337 335 338 339 334 328 326 326 325 324 324 323 321 320 319 319 319 319 319 319 319 319 319 319 318 316 315 316 315 314 314 314 315 317 318 319 320 321 322 322 323 323
337 340 340 337 335 336 335 334 335 336 335 335 336 337 337 338 338 338 338 338 338 338 338 338 338 337 337 337 338 338 338 338 339 340 340 341 343 344 344 343 342 340 338 339 339 337 335 333 331 327 325 325 325 324 323 322 319 317 317 317 317 318 318 319 320 319 318 318 318 317 316 316 316 315 313 313 314 315 316 317 319 321 321 321 322 323 323
337 336 336 336 336 336 335 335 336 336 336 337 337 337 337 337 337 338 338 338 338 338 338 339 339 338 338 337 337 337 338 339 339 340 341 341 342 343 343 342 341 340 340 341 341 339 336 331 326 324 325 325 325 323 321 319 316 316 317 318 318 319 319 320 321 320 318 317 317 316 316 316 316 314 312 312 314 315 316 318 320 321 321 321 322 323 323
337 336 335 335 336 335 335 336 336 336 337 337 336 336 337 337 337 338 337 337 337 337 337 338 339 339 337 337 336 337 338 339 340 341 341 341 342 342 343 342 342 342 342 342 342 340 336 329 325 325 326 326 325 322 319 317 316 317 318 318 319 320 320 321 321 320 318 316 316 315 316 316 316 313 312 312 314 315 317 319 320 321 321 321 322 322 322
337 335 334 334 334 335 334 334 334 335 336 337 336 337 337 337 337 337 337 337 337 337 337 338 339 339 338 337 337 337 338 339 340 341 342 341 342 342 342 342 342 343 341 340 339 338 334 329 327 327 327 325 322 320 318 318 319 320 320 320 320 320 321 320 319 318 317 316 315 315 315 316 315 313 312 313 314 316 318 320 320 320 320 321 322 321 321
334 334 333 333 333 334 333 333 334 335 335 335 336 336 337 337 337 336 336 336 336 336 337 338 339 339 339 339 339 338 339 339 340 341 342 342 341 341 341 341 342 342 340 337 337 336 333 331 330 329 326 323 320 319 319 320 321 321 321 321 321 321 322 321 319 318 317 316 315 315 316 315 314 312 312 313 315 317 319 320 319 319 320 321 321 321 320
333 333 332 332 332 333 333 333 334 334 334 335 336 336 336 336 336 336 336 336 336 337 338 339 339 339 340 340 340 340 339 339 340 341 342 342 342 341 341 341 341 340 338 336 335 334 333 331 330 326 323 321 321 321 321 322 322 321 321 321 321 322 322 321 320 319 317 315 315 316 316 315 313 312 312 313 316 317 319 319 319 319 320 320 320 320 319
331 332 333 332 332 333 333 333 333 334 334 335 336 335 335 336 336 336 336 336 337 337 338 338 338 339 339 340 341 341 340 339 340 341 342 342 342 342 341 341 340 340 338 335 334 334 333 331 327 323 322 323 323 322 322 322 322 320 320 321 321 322 322 322 322 321 319 316 315 315 316 315 314 312 312 314 316 317 319 319 319 319 319 320 319 319 318
328 330 332 332 332 333 333 333 333 334 334 335 336 336 336 336 336 336 336 336 337 338 338 338 337 338 339 340 341 341 340 340 341 341 341 342 342 341 341 340 340 340 339 336 334 334 334 331 325 322 323 324 324 323 323 322 322 321 321 322 322 323 323 322 321 321 320 318 316 315 316 316 315 313 313 314 316 317 319 319 319 319 319 319 319 318 318
325 327 329 331 332 333 333 333 334 334 334 335 336 335 335 336 336 336 336 336 337 337 337 337 337 337 337 339 341 342 341 341 341 341 341 341 341 341 340 340 340 340 339 336 335 334 333 330 324 323 325 325 324 323 323 323 323 324 324 324 324 324 323 321 319 318 319 318 317 316 316 316 316 315 314 314 315 317 319 319 319 319 318 318 318 318 317
328 329 331 332 333 334 334 334 335 335 334 335 334 334 334 335 335 335 335 336 336 336 336 337 337 336 336 337 338 340 342 342 341 341 341 341 341 340 340 340 340 340 338 336 335 335 333 329 324 324 325 324 323 323 323 324 324 324 324 324 325 325 324 322 320 319 317 317 317 316 316 316 317 316 315 314 314 317 318 319 319 319 318 318 318 317 317
331 332 332 332 333 334 334 334 334 333 334 334 334 334 333 333 334 334 335 335 336 336 336 336 336 337 336 336 336 338 340 342 342 341 342 341 341 340 340 340 340 339 338 337 336 335 334 330 326 325 326 326 324 323 323 323 323 324 325 325 326 326 326 325 323 320 318 317 317 316 315 316 317 316 315 314 314 316 318 319 319 318 318 318 318 317 316
330 331 331 331 332 331 331 332 333 332 333 333 334 333 332 333 333 334 334 335 336 336 336 336 337 337 336 336 336 336 338 340 342 342 342 341 341 340 340 340 339 339 338 338 337 336 334 332 329 327 328 329 328 326 326 325 324 324 325 326 326 326 326 326 325 323 320 318 317 316 315 315 315 316 315 314 314 316 318 319 318 318 318 317 317 316 316
327 328 328 328 329 329 329 330 331 331 331 331 332 333 332 333 333 334 335 336 336 336 337 337 337 337 337 337 337 337 337 339 341 341 342 341 339 339 340 340 339 338 337 338 337 336 335 333 330 330 332 333 333 332 330 327 325 325 326 326 326 326 326 325 325 324 321 319 317 316 315 315 315 315 314 313 313 316 318 318 318 318 317 317 317 316 315
323 323 323 324 325 326 327 328 329 328 329 330 331 332 333 333 334 335 336 336 337 337 337 337 337 336 336 336 336 337 337 338 339 340 341 340 338 338 339 339 338 337 337 337 337 336 335 333 332 333 335 336 335 333 330 327 325 326 326 326 327 326 325 323 323 323 321 319 317 317 316 316 315 314 313 313 314 316 317 318 318 317 317 317 317 316 316
320 321 322 322 321 321 323 326 327 327 328 330 331 332 333 334 334 335 336 337 337 337 337 337 336 336 335 335 336 337 338 338 338 339 339 339 337 337 338 338 338 338 338 337 336 335 335 334 334 335 335 335 333 330 327 325 325 326 327 327 326 325 323 322 321 321 320 318 317 316 316 316 315 313 313 313 314 315 316 317 317 317 317 317 317 316 316
319 320 321 321 320 321 324 327 329 330 331 331 332 333 334 335 335 335 336 337 338 337 336 336 337 336 335 335 336 336 336 337 337 337 337 337 337 337 338 338 338 338 338 337 336 335 335 334 334 334 333 332 330 327 325 326 327 327 327 325 324 322 321 320 320 319 318 317 316 315 316 315 315 313 313 313 313 314 315 316 317 317 317 317 317 316 316
Wind_Speed
5 2 2 4 6 5 3 5 6 7 6 7 6 3 1 2 5 4 7 4 5 4 5 4 5 5 6 7 8 8 8 7 5 5 6 7 6 6 5 5 5 6 6 6 7 9 10 10 10 9 9 9 9 10 12 13 13 13 14 15 13 12 11 11 11 11 11 11 11 9 8 7 6 5 5 3 3 2 0 1 1 2 2 3 4 4 4
7 7 6 3 6 7 6 7 7 6 6 7 6 3 1 0 3 4 4 3 4 4 4 6 6 5 6 5 6 7 7 6 6 8 8 7 7 6 5 5 5 6 6 6 8 9 9 9 10 10 10 10 10 11 13 14 13 13 15 15 13 12 12 11 11 11 11 12 11 9 8 7 5 5 4 3 2 1 0 0 1 2 2 3 3 2 2
5 7 5 2 6 10 9 8 8 7 6 6 6 4 3 3 2 5 3 3 3 4 3 6 5 4 7 7 7 7 7 7 8 8 8 7 6 5 4 5 5 5 5 6 7 9 10 11 11 11 11 11 12 13 14 15 15 14 15 15 14 13 12 11 11 12 12 12 11 9 7 5 4 3 2 2 2 1 1 0 0 2 2 3 3 2 1
2 4 2 2 3 7 9 8 9 8 6 5 4 3 3 2 3 6 5 4 3 6 4 5 4 3 7 9 9 6 4 7 8 9 9 7 6 5 5 6 6 6 6 6 7 10 12 14 14 14 14 13 14 14 16 17 17 16 16 15 14 13 12 11 11 12 13 12 9 7 6 4 3 2 2 1 2 2 1 1 1 1 1 2 2 1 2
1 5 4 3 5 7 5 5 5 3 3 2 2 4 5 3 0 1 3 2 5 6 5 3 3 3 4 5 6 5 6 8 8 8 8 6 5 5 5 6 7 7 8 10 12 14 16 18 18 17 16 15 16 17 18 18 18 17 16 15 15 14 12 12 12 13 12 10 9 8 7 5 3 2 2 2 2 1 1 3 3 3 3 2 1 1 1
1 6 5 5 6 3 2 5 3 4 4 3 4 5 5 5 4 2 1 4 5 5 3 1 2 4 4 3 4 4 5 7 8 8 7 6 5 5 6 7 7 8 10 13 16 17 19 20 19 17 16 16 17 17 17 19 19 18 17 16 15 14 13 13 13 13 12 10 9 8 7 4 2 2 1 2 2 3 3 4 5 5 5 4 4 4 3
2 3 5 6 3 3 6 5 3 3 5 6 6 5 6 7 7 5 4 5 6 5 3 2 3 5 4 2 3 4 4 3 6 7 6 4 4 4 5 6 7 9 13 16 16 16 16 17 17 16 15 15 15 14 16 18 19 18 17 16 14 13 14 14 14 13 11 10 9 7 5 2 1 1 1 2 4 5 5 6 6 6 6 5 5 5 4
2 3 5 3 3 6 6 6 5 2 1 3 3 5 6 6 5 4 5 6 6 5 4 4 3 4 4 2 1 2 4 4 3 3 3 2 2 3 5 7 9 12 16 17 15 14 15 16 17 16 15 15 14 14 16 18 18 17 16 15 14 14 14 13 13 12 10 9 8 7 3 0 1 1 3 6 7 7 7 8 7 7 7 6 5 4 2
2 4 3 1 2 4 5 5 3 1 1 1 3 3 3 3 3 3 2 5 6 5 4 5 4 3 2 4 5 5 4 3 3 1 1 2 3 5 8 11 13 14 15 14 13 13 15 17 18 17 16 15 13 13 15 17 17 16 15 14 14 14 13 12 12 11 10 10 9 5 1 2 3 4 7 8 9 8 8 8 8 7 6 6 4 3 2
3 5 4 2 2 2 6 6 4 1 2 5 6 5 2 4 2 2 2 4 6 5 6 7 6 3 5 5 4 5 4 4 4 3 3 4 5 7 10 13 14 13 13 12 12 12 14 17 17 17 16 15 13 13 16 17 16 15 14 14 14 13 11 11 12 12 12 11 8 3 1 4 6 8 9 10 10 9 8 7 7 6 5 5 4 3 2
2 5 5 2 3 3 6 6 5 4 2 5 5 5 3 6 4 4 3 5 6 6 7 8 5 6 5 3 4 4 5 6 6 5 5 6 7 8 10 12 13 14 14 13 12 12 14 17 17 16 16 15 14 14 16 16 15 14 14 13 13 12 12 12 13 13 12 10 6 3 4 8 10 10 11 11 11 9 6 6 6 6 5 4 3 3 2
2 4 3 2 3 2 4 5 5 4 2 4 6 4 4 6 4 4 3 5 5 5 5 6 6 7 3 4 6 6 7 8 7 6 5 6 8 9 10 11 12 14 14 12 10 10 11 13 14 15 15 14 15 15 16 16 15 14 14 14 13 13 13 13 13 12 9 6 4 5 8 11 12 12 11 11 10 7 6 6 6 5 4 2 2 3 3
3 4 3 1 2 3 4 5 5 4 2 5 5 2 7 3 2 2 2 4 3 2 4 5 3 1 2 5 7 8 7 6 5 1 4 7 8 9 11 12 13 15 14 12 12 11 10 11 13 15 15 15 15 15 15 16 16 15 15 14 14 14 14 14 13 9 4 3 5 9 12 13 13 12 11 9 7 6 6 6 5 5 4 3 3 4 4
2 3 3 1 2 3 3 4 6 4 3 2 3 5 5 2 2 0 2 3 2 2 4 4 1 3 5 4 5 7 6 3 2 2 5 7 8 9 11 13 15 17 16 14 14 15 16 17 17 16 16 16 16 15 14 16 16 15 15 15 15 15 15 14 11 5 2 4 9 12 14 14 13 12 10 8 7 6 6 5 5 6 6 5 4 4 4
2 3 3 2 3 4 3 3 3 2 2 4 5 2 1 1 1 2 4 4 4 4 5 5 5 6 7 6 6 6 5 2 1 3 6 8 11 13 14 16 19 21 20 19 19 20 20 20 20 18 18 18 17 15 15 16 15 15 15 16 15 16 16 13 8 4 5 8 12 14 14 13 12 11 10 9 7 6 5 5 7 8 8 7 6 6 6
3 3 2 3 4 4 3 1 2 2 2 4 3 4 2 1 2 3 4 5 5 4 5 6 6 6 7 8 7 7 6 4 2 3 7 9 12 14 15 18 21 22 22 21 21 21 21 21 20 19 19 18 16 16 16 15 14 15 16 17 17 17 16 12 6 5 8 12 14 15 14 11 11 11 11 9 8 6 5 7 8 9 9 9 9 9 9
3 4 4 4 3 4 3 1 3 2 2 2 2 4 4 3 2 2 3 5 6 5 5 5 5 6 7 8 8 7 6 6 4 2 6 10 13 14 16 18 18 16 17 19 19 19 19 19 19 18 18 18 16 16 16 15 14 16 18 18 19 18 15 11 10 12 15 16 16 15 13 11 10 11 11 9 7 7 7 8 9 10 10 10 10 9 8
2 2 1 2 3 4 4 3 3 4 5 5 4 5 4 2 2 0 2 3 5 4 4 4 4 6 7 7 7 7 6 6 6 3 3 8 13 13 13 12 8 4 4 10 15 15 14 16 19 19 18 19 18 17 16 15 15 17 19 20 19 17 14 13 16 19 19 19 18 15 13 11 10 10 10 9 8 9 9 9 10 10 9 9 9 9 8
2 2 1 3 3 4 5 5 5 5 6 5 4 5 3 2 2 2 1 2 4 4 4 4 5 6 6 6 7 7 6 5 5 3 1 4 8 12 15 14 11 6 5 7 9 12 12 14 19 23 22 19 17 15 13 12 13 15 19 20 18 16 15 16 19 20 20 19 18 15 13 12 11 10 9 10 11 11 11 11 10 9 8 8 9 8 8
2 3 4 2 3 4 5 4 4 4 5 5 5 5 3 3 4 4 3 3 3 3 4 4 5 6 5 5 5 5 5 5 4 3 4 6 11 18 19 17 17 18 17 14 13 14 14 13 16 22 23 19 17 16 14 13 13 13 13 13 12 13 15 19 20 20 19 18 17 15 14 13 12 12 12 12 13 12 12 11 10 8 7 8 9 8 8
3 2 3 2 2 4 6 5 4 3 4 4 5 5 5 5 5 4 4 3 2 2 4 5 5 6 6 5 4 5 5 4 5 3 5 11 16 20 23 21 18 18 20 19 18 20 20 17 16 18 23 23 20 19 18 16 17 16 12 8 7 10 14 19 20 19 19 18 17 16 16 14 14 14 13 13 13 12 11 10 9 8 8 9 9 7 7
3 3 4 3 4 2 1 2 3 4 3 4 5 6 5 5 5 4 4 5 4 3 4 5 4 5 7 6 4 4 4 4 6 4 4 13 17 20 23 21 19 18 19 19 19 20 21 21 17 16 23 27 24 21 20 19 20 22 20 15 11 11 15 19 20 19 19 18 17 17 18 18 17 17 15 12 11 10 10 9 7 7 9 10 8 6 7
5 6 5 4 4 3 3 2 0 3 1 3 5 3 3 4 4 4 4 5 6 5 6 7 5 5 7 8 6 5 5 7 8 6 5 12 17 20 23 22 20 19 18 18 19 18 19 21 20 17 19 26 26 23 23 22 22 23 23 19 16 16 18 20 20 20 19 19 19 19 19 19 18 18 16 13 10 9 7 6 6 7 8 8 7 6 7
3 3 5 5 5 4 3 4 3 2 1 3 2 2 3 4 5 4 4 4 5 6 6 8 9 7 8 10 9 5 6 9 9 8 7 10 14 19 22 22 21 19 17 18 21 21 20 22 23 20 17 19 25 26 24 24 22 21 20 19 19 20 22 22 21 20 20 20 21 21 20 19 17 17 16 14 12 9 7 5 5 6 6 6 5 5 7
4 4 5 5 5 4 2 3 3 2 1 1 1 2 4 5 6 6 5 5 6 6 5 7 10 10 9 11 11 8 8 10 10 8 8 9 12 15 18 20 21 22 21 21 23 23 22 22 24 21 17 14 20 26 25 22 21 20 19 19 20 23 25 23 21 21 21 22 23 22 21 19 17 16 15 13 11 10 8 5 4 4 5 5 4 5 7
4 5 5 4 3 1 1 2 2 3 3 2 1 3 5 6 8 8 8 8 8 8 7 7 10 12 11 11 13 12 11 11 10 8 8 10 12 15 18 22 24 25 25 23 21 22 22 21 21 20 16 14 17 22 22 21 21 22 20 19 21 25 26 23 22 22 22 23 23 22 20 18 17 15 12 10 9 9 8 6 5 4 4 4 3 5 7
5 6 6 6 3 2 2 3 4 4 2 1 2 4 6 8 9 9 10 10 9 9 10 9 10 11 12 12 12 13 12 12 10 8 9 12 15 18 21 23 23 23 23 21 18 19 20 18 16 17 16 16 18 20 21 22 22 21 19 19 22 25 23 21 22 23 23 23 23 21 19 17 14 12 10 8 7 6 6 7 6 5 5 4 4 6 7
5 5 4 4 4 5 5 5 4 3 4 3 3 4 6 7 8 7 8 9 9 10 12 12 10 9 10 11 12 12 13 12 10 9 11 13 17 20 20 20 19 18 18 16 15 16 17 16 16 15 15 16 19 20 21 22 21 20 20 21 23 23 22 22 22 22 23 23 22 20 17 14 12 10 9 8 7 6 6 8 8 6 5 4 4 5 6
6 5 2 2 4 5 4 3 1 3 4 4 3 3 4 4 5 5 5 7 8 8 9 12 12 10 10 11 11 11 11 11 11 11 13 15 17 17 17 16 15 14 13 13 14 16 16 16 16 15 14 16 19 20 20 20 20 21 22 23 23 22 22 21 21 21 23 23 20 17 15 13 11 10 10 9 8 8 10 11 9 7 5 5 5 5 5
5 4 3 2 3 5 5 3 3 4 4 4 3 3 2 2 4 5 6 7 7 6 8 11 12 11 11 11 11 12 13 14 15 15 15 14 14 15 15 14 12 11 11 13 15 16 17 18 18 16 15 17 20 20 19 20 22 22 23 22 22 22 21 20 21 22 23 21 18 16 15 13 12 11 11 10 9 10 12 11 9 8 7 6 6 6 7
4 4 4 4 4 5 4 4 3 3 4 3 3 4 3 3 4 6 7 6 6 7 10 11 10 10 12 12 13 14 16 17 17 17 16 14 12 13 15 15 15 14 15 16 18 18 19 20 18 16 16 19 22 22 21 22 23 22 22 21 20 20 20 21 23 23 22 20 18 17 15 13 12 10 10 9 9 12 13 11 10 9 7 6 6 7 6
6 3 2 1 2 2 2 2 2 4 5 4 3 4 4 3 5 6 6 7 8 10 11 11 10 12 14 14 14 14 16 17 18 18 15 12 10 11 15 18 19 17 17 19 21 21 22 21 18 16 18 22 23 23 24 24 23 21 20 20 21 22 23 23 23 22 20 19 18 16 15 13 11 11 10 9 10 13 13 11 10 9 7 6 6 6 6
8 4 3 4 3 3 4 4 3 4 4 4 5 5 5 5 6 7 8 9 11 11 11 11 13 15 15 14 14 14 15 16 16 15 13 11 9 9 12 16 18 16 17 20 22 23 24 23 20 18 21 23 24 25 25 23 21 20 21 22 23 24 24 23 23 21 19 18 16 14 13 12 11 11 10 9 11 13 14 12 10 9 7 6 7 7 6
8 7 6 6 5 5 4 4 4 4 4 5 5 6 6 7 8 9 10 11 10 11 12 14 16 17 15 13 13 13 11 10 10 11 11 10 8 8 10 14 16 16 17 18 20 23 25 23 20 21 24 26 26 26 24 22 21 22 23 24 24 25 24 24 23 21 18 16 14 13 13 12 11 11 10 9 11 14 14 12 10 9 8 8 8 7 6
5 5 4 3 4 4 4 3 4 4 4 4 5 6 8 9 10 10 11 12 12 13 16 17 18 17 14 11 10 10 10 9 10 12 12 10 8 9 11 13 15 15 15 17 20 23 24 22 21 23 27 28 26 25 24 22 23 24 25 25 25 25 25 24 22 20 17 15 14 14 13 12 11 11 10 9 11 15 15 12 10 8 8 9 9 7 6
6 5 3 2 1 2 4 5 6 6 5 5 6 7 9 11 12 12 13 15 15 16 17 17 17 15 13 10 10 12 13 13 13 13 12 10 9 10 13 15 16 16 15 16 20 22 21 21 24 27 29 28 26 25 24 24 24 25 25 26 26 26 25 23 21 18 15 14 15 15 14 12 10 10 10 10 12 15 15 12 9 8 9 9 9 7 5
5 5 4 1 1 3 5 7 7 7 7 7 8 9 10 13 15 16 17 17 16 16 16 15 15 14 14 14 14 14 15 15 13 12 10 10 11 13 15 17 17 15 14 16 20 22 22 23 26 29 29 27 26 26 25 24 25 27 28 28 28 26 24 22 19 16 15 15 16 16 14 12 10 10 10 10 12 16 15 12 9 8 9 9 9 7 5
5 4 2 1 3 5 7 8 7 7 7 8 9 10 12 14 17 18 18 18 17 15 15 14 14 15 16 16 14 14 15 15 12 11 10 10 12 15 16 17 17 17 17 20 23 24 24 25 27 29 29 27 26 26 26 26 28 30 30 29 27 25 22 20 17 16 16 17 16 15 14 12 11 11 9 10 13 16 15 11 10 9 9 8 8 7 5
3 1 1 3 4 6 8 8 8 7 7 8 11 12 13 14 16 18 18 19 17 15 14 14 14 14 15 14 13 14 15 14 12 11 11 12 14 17 19 20 22 24 24 24 24 26 26 27 28 30 29 27 26 27 28 29 30 30 30 28 25 23 20 18 16 16 17 17 16 15 14 13 13 12 10 11 14 16 14 11 10 9 8 7 7 7 6
2 3 4 4 5 6 7 8 9 9 9 9 12 13 14 15 15 16 17 18 17 14 13 14 13 12 12 13 13 15 15 14 13 13 12 12 15 17 17 19 24 27 24 21 22 26 28 28 29 30 29 28 28 30 31 31 30 29 28 26 24 21 19 17 17 17 17 17 17 16 16 15 15 13 12 12 15 16 14 12 10 9 7 8 8 7 6
4 5 5 5 6 7 8 8 10 11 11 11 12 14 15 15 15 15 16 17 17 16 14 14 13 13 14 15 16 18 17 15 14 14 13 13 14 14 12 15 23 26 22 18 21 26 28 28 30 31 30 30 31 32 32 31 29 28 27 26 23 21 19 18 17 18 18 18 19 18 17 16 16 15 14 14 16 16 14 12 10 8 8 9 9 7 6
4 4 5 5 7 8 8 9 10 11 12 13 14 14 14 13 14 15 16 17 17 17 16 14 14 15 16 18 19 19 17 15 15 15 15 16 16 15 13 15 20 21 17 15 18 23 26 27 30 32 32 32 32 33 32 31 28 27 27 25 22 20 19 18 18 18 18 18 19 19 17 17 17 17 15 16 16 16 15 13 11 9 9 9 8 7 6
5 5 5 5 7 8 8 9 10 11 13 15 15 14 14 14 13 14 15 16 16 17 16 16 15 15 16 18 18 17 16 15 15 15 15 17 19 20 17 15 15 18 19 18 19 23 26 28 31 33 32 32 32 32 31 30 28 27 26 25 22 20 18 17 16 17 18 18 19 18 18 18 18 18 17 17 17 17 16 14 12 10 10 9 8 8 7
6 5 5 6 7 7 8 9 10 10 12 15 17 17 15 14 13 13 15 16 16 16 16 16 16 16 16 17 17 17 15 13 14 14 14 14 15 18 18 15 14 18 23 24 24 27 30 31 33 34 32 31 31 32 31 29 28 27 26 24 22 20 18 16 15 16 18 18 17 16 17 19 20 19 18 18 18 18 17 15 13 11 10 10 9 8 7
4 3 3 5 6 7 8 9 9 10 12 15 17 16 14 12 13 14 15 15 16 17 17 17 17 17 17 17 18 19 18 16 16 17 16 12 11 15 19 18 16 19 24 27 27 30 33 35 34 34 33 31 31 31 31 30 28 27 25 23 21 19 17 16 15 16 17 17 16 15 16 19 20 20 18 18 18 18 17 16 14 12 11 11 9 8 6
1 2 2 3 5 6 8 8 9 10 11 12 13 13 14 14 15 16 16 16 17 18 19 19 19 19 19 19 19 20 20 18 19 22 22 19 15 16 21 21 19 20 24 27 27 30 34 36 35 34 33 32 31 31 31 30 28 26 23 22 21 19 17 17 17 16 16 17 16 15 15 17 19 20 19 19 18 18 17 16 14 13 12 11 9 8 7
5 5 6 6 6 7 8 9 9 9 9 7 8 12 16 18 18 17 17 17 18 19 20 21 21 20 20 20 20 20 19 16 17 21 25 25 20 17 19 21 21 21 24 27 28 30 33 34 34 34 33 32 31 31 31 29 27 25 23 22 20 18 17 17 18 18 17 16 16 15 15 16 18 19 20 19 18 18 18 17 15 14 13 12 10 9 8
7 7 7 7 8 9 10 11 10 9 9 8 9 13 18 20 20 19 18 18 19 20 21 21 21 22 21 20 20 21 21 17 13 16 22 25 22 19 21 23 24 24 26 28 29 31 33 34 34 34 33 31 31 32 31 29 27 25 23 21 19 17 15 16 18 19 19 17 16 15 16 17 18 19 20 20 19 18 19 18 16 15 14 13 11 9 7
9 8 9 10 11 11 12 11 9 9 11 13 14 15 18 19 19 18 18 19 20 21 21 21 21 22 22 20 19 19 20 19 17 19 22 24 23 22 23 24 25 25 27 28 29 31 33 34 33 33 32 31 31 32 31 29 28 25 22 20 18 16 14 14 16 18 18 17 15 15 16 17 19 20 21 20 19 19 19 18 17 16 15 14 11 10 8
12 12 12 12 13 13 12 11 10 12 15 16 16 17 17 16 15 16 18 20 20 20 20 21 22 22 21 20 19 18 18 20 20 21 23 24 24 24 23 22 23 25 27 29 30 31 32 33 33 32 32 31 31 31 30 29 27 24 22 20 18 16 15 15 16 17 17 16 15 14 15 17 19 20 21 20 19 19 19 18 17 17 16 14 12 11 9
10 11 11 11 11 11 11 11 11 13 15 17 17 17 16 14 14 16 18 19 18 18 19 19 20 20 19 19 18 17 17 18 19 19 22 25 27 27 25 24 25 27 29 29 30 32 32 33 33 33 32 32 32 31 30 29 27 24 21 19 18 17 17 17 16 16 16 15 14 14 15 17 19 21 21 19 19 19 19 19 18 18 17 15 13 12 10
10 10 11 12 14 15 16 17 17 18 19 19 19 17 16 15 15 17 18 17 16 17 17 17 18 18 18 17 16 16 15 16 18 20 22 25 28 29 29 29 30 30 30 30 31 31 32 33 34 33 33 33 32 31 30 29 26 22 20 18 18 19 19 17 16 16 16 16 16 15 15 17 20 21 20 19 19 20 20 20 19 19 18 17 15 12 11
Wind_Direction
34 56 54 63 94 95 49 47 32 354 13 64 78 101 114 127 151 235 274 230 209 273 310 270 221 187 177 175 164 167 177 174 169 187 204 203 197 195 186 171 149 141 148 161 169 175 180 183 190 196 196 191 189 194 196 190 179 168 162 158 152 142 136 132 131 138 147 151 150 147 145 143 141 137 131 119 105 100 127 177 138 129 153 161 150 136 123
43 23 13 48 105 96 54 39 35 13 30 63 80 100 69 209 202 247 295 290 259 273 287 276 246 188 170 160 157 167 168 164 175 198 211 206 201 199 182 160 146 144 148 156 163 165 166 174 182 188 192 189 188 194 197 194 187 175 168 166 159 151 146 142 141 147 155 157 154 152 150 146 144 141 130 113 97 74 354 274 178 174 182 190 183 168 124
36 8 21 73 102 98 81 44 26 12 14 38 46 31 15 28 312 296 347 46 302 278 273 293 280 177 142 143 169 174 163 170 187 205 216 210 203 197 163 139 137 131 130 144 156 155 160 173 181 186 192 189 188 196 198 197 194 183 176 173 165 157 152 147 148 153 159 160 155 152 150 143 139 136 123 95 60 22 13 54 195 204 214 214 196 193 332
360 315 357 356 16 73 76 39 13 4 13 38 49 33 23 26 290 308 10 47 300 298 328 331 304 194 155 163 173 163 163 190 197 206 215 210 202 188 149 136 136 130 134 150 161 164 171 179 183 188 192 188 190 199 201 200 197 187 182 179 169 162 157 151 153 157 161 161 155 148 145 139 131 112 73 21 2 3 37 98 108 137 162 180 181 248 306
293 303 337 352 3 37 35 345 332 1 25 43 88 53 20 359 236 16 12 287 265 297 324 327 309 266 202 183 172 160 182 203 210 219 219 206 196 176 141 136 144 144 153 167 176 181 185 187 188 190 193 190 194 203 203 200 195 189 187 183 172 164 158 155 158 162 164 163 156 156 158 151 132 93 51 358 356 39 104 119 114 108 107 113 110 26 6
213 298 346 36 38 42 273 271 232 132 94 85 96 69 27 11 36 71 279 273 289 317 319 286 286 273 256 249 246 231 209 201 208 222 222 200 185 159 135 142 151 151 160 176 188 193 193 193 191 191 196 197 199 206 205 198 193 191 190 184 174 165 158 158 164 168 171 169 165 168 168 156 130 99 55 16 54 100 119 118 111 101 98 100 95 84 83
148 312 24 54 42 244 244 276 270 159 126 110 104 82 47 34 28 19 6 342 324 324 320 277 257 262 272 276 260 276 292 253 219 228 232 200 169 148 139 149 156 159 170 182 193 195 194 195 191 191 198 199 199 208 207 198 193 192 190 184 175 166 160 163 171 174 175 175 173 171 165 139 85 95 119 95 105 119 118 111 107 102 99 94 89 88 91
114 37 54 95 234 263 283 309 300 238 117 79 76 45 26 31 33 17 4 343 325 323 325 315 281 269 290 341 360 313 326 327 303 291 315 30 114 148 155 161 169 175 181 187 191 190 190 193 193 195 199 198 202 212 209 198 194 192 190 184 176 169 166 168 174 176 180 184 178 172 171 52 37 105 126 118 120 123 115 108 105 102 101 95 88 90 93
121 97 76 59 310 307 296 294 283 202 130 147 127 84 3 359 53 55 5 338 333 330 330 332 322 307 4 28 2 341 341 330 308 302 43 85 140 160 168 179 186 187 187 188 189 190 191 192 195 199 200 198 205 213 206 198 195 193 191 186 179 174 170 170 175 181 188 187 179 174 169 47 85 123 131 125 124 125 118 109 105 102 104 106 107 112 113
100 99 82 42 28 283 257 261 285 313 160 164 140 106 346 311 359 55 46 3 352 354 359 354 347 14 49 40 342 326 334 317 287 239 183 174 173 168 169 176 182 183 184 188 193 195 192 192 197 201 200 199 205 208 203 198 196 194 193 188 182 178 175 176 182 185 185 182 179 174 97 106 122 133 134 130 127 124 116 110 110 112 113 113 113 109 92
100 105 110 153 187 222 239 250 285 316 172 158 114 67 337 292 320 14 33 17 8 14 7 357 17 51 39 341 286 294 309 305 288 260 216 182 166 166 171 174 175 176 180 186 192 193 190 191 196 201 201 199 201 204 202 198 197 198 197 191 187 186 186 189 190 187 185 186 181 142 125 130 132 133 133 130 127 123 119 118 122 121 113 102 93 75 48
132 111 114 193 205 218 248 254 273 287 229 130 84 55 268 266 311 354 29 23 5 7 8 7 42 60 27 297 288 299 300 297 292 273 224 179 157 154 165 174 176 175 175 174 170 172 181 189 194 198 199 198 200 203 202 197 198 201 199 196 195 194 195 198 196 192 192 192 160 124 134 138 134 132 133 131 130 131 126 124 125 119 105 84 70 67 64
135 120 120 211 237 245 273 286 293 303 359 72 82 200 227 232 335 329 56 58 12 2 38 42 56 93 243 257 281 299 305 310 318 322 164 167 163 159 163 168 166 161 157 148 140 147 167 181 189 195 196 196 201 204 200 198 202 203 201 199 196 194 196 200 199 196 193 166 133 126 134 137 133 132 134 134 136 135 122 116 116 109 98 86 75 76 73
133 130 117 103 256 256 289 309 310 334 58 117 200 216 207 152 85 21 74 69 48 39 50 48 360 279 277 277 295 310 320 331 358 82 125 132 130 137 150 156 155 147 140 140 152 168 177 176 179 189 193 194 198 202 201 203 207 207 202 197 193 191 193 195 196 194 168 144 139 135 135 135 132 133 139 143 142 132 119 111 107 104 98 85 74 70 61
118 83 81 115 208 243 298 329 331 22 110 202 209 167 138 158 75 52 46 37 26 31 26 10 349 329 325 328 328 328 330 333 81 126 130 129 133 141 146 151 155 153 152 161 174 182 183 176 173 180 188 190 192 198 205 209 210 208 201 195 190 186 182 182 186 181 156 146 142 142 142 140 138 141 145 145 138 129 124 118 113 105 91 74 66 66 62
123 115 167 197 210 244 273 207 167 168 202 216 181 120 90 15 26 39 36 21 11 24 21 356 345 343 340 337 334 334 341 347 358 140 141 141 148 153 153 158 165 167 166 169 173 180 186 180 172 176 184 187 189 198 207 210 208 203 199 194 188 178 171 172 183 178 159 152 150 149 148 147 148 149 148 144 137 133 130 123 111 97 79 65 63 68 70
159 167 197 224 246 274 295 93 126 112 40 25 91 104 89 51 26 36 40 17 356 6 19 358 349 352 343 333 330 330 336 341 333 215 164 155 157 161 162 165 171 173 168 164 167 178 188 182 170 172 182 185 191 202 209 209 206 200 196 193 187 177 170 168 167 164 161 159 157 154 154 159 160 154 153 154 148 140 133 119 102 87 73 61 60 69 74
166 118 63 344 337 331 347 32 61 63 51 32 40 73 73 27 347 108 66 3 336 351 15 1 343 341 333 326 326 324 327 340 341 321 183 167 164 159 147 137 128 119 162 170 168 174 187 184 172 172 182 190 197 208 211 207 205 201 197 195 189 179 172 163 156 157 161 161 159 158 161 165 161 157 162 163 150 139 130 112 95 80 67 58 59 68 70
118 93 3 347 4 354 354 17 35 43 44 35 44 72 74 23 17 38 29 354 336 344 358 337 311 311 317 323 323 321 325 333 334 340 360 162 144 122 110 110 117 142 212 220 188 175 187 194 181 177 182 189 195 200 199 194 201 205 200 195 188 178 169 162 159 160 163 161 160 161 162 159 155 156 161 156 139 129 121 108 93 79 64 55 56 62 57
85 170 213 267 345 355 0 27 46 34 25 27 41 63 78 68 48 27 16 25 12 347 338 322 307 303 305 308 310 313 318 313 311 358 57 87 103 111 124 143 163 179 193 203 196 185 193 207 197 182 175 176 182 185 180 178 191 203 203 193 187 181 170 164 164 167 168 166 164 161 156 153 151 149 149 141 128 118 113 103 91 80 67 55 54 58 49
71 143 211 258 13 18 10 22 34 13 12 30 32 30 36 45 44 28 6 349 313 298 309 314 316 310 304 301 298 305 311 301 299 334 88 110 119 132 150 168 182 189 193 195 193 190 193 203 208 188 172 172 183 185 180 178 182 187 189 188 197 201 183 169 168 172 173 170 167 159 152 150 146 143 142 136 124 118 116 106 89 74 56 48 54 57 42
139 208 213 179 128 105 355 14 26 356 355 45 38 21 15 11 3 360 353 334 297 266 288 307 309 300 299 303 304 302 300 293 294 300 126 131 139 152 166 179 191 197 198 196 198 199 195 196 207 202 180 176 182 183 178 176 178 181 182 178 180 197 192 177 174 178 175 171 167 160 155 152 147 144 144 141 131 127 126 116 95 66 44 43 55 57 35
198 213 194 162 128 142 200 207 319 306 303 77 59 21 340 323 313 312 333 334 320 311 318 321 311 284 288 301 309 309 298 292 287 272 185 156 157 165 175 188 200 202 198 196 199 207 203 196 206 218 199 180 177 175 173 172 178 185 184 170 163 181 192 186 182 182 177 172 168 164 160 158 153 150 152 154 151 145 137 120 93 62 42 42 57 52 27
163 181 178 170 142 139 176 195 199 234 209 114 98 307 285 282 287 288 289 297 299 302 315 323 319 305 293 296 301 296 291 294 289 269 231 193 180 178 182 192 203 204 202 201 201 205 207 202 205 221 223 192 174 169 170 172 178 185 181 164 161 179 192 191 188 186 181 174 170 167 164 162 159 157 159 160 161 160 152 125 91 66 49 54 68 49 19
141 161 174 169 152 146 165 183 190 224 243 153 186 285 291 293 299 301 298 292 291 288 290 304 314 318 313 304 302 294 286 292 293 274 246 218 201 193 190 197 205 204 204 210 207 203 207 207 203 213 230 210 175 168 171 173 175 179 175 164 166 182 191 192 190 189 185 178 175 171 167 166 166 166 165 163 164 165 161 144 112 80 65 75 76 31 10
135 136 122 103 96 73 61 126 193 239 235 181 218 280 300 314 317 313 307 303 301 301 296 288 299 314 318 310 307 303 296 297 297 277 243 220 211 207 205 207 208 205 205 211 210 203 206 209 204 205 218 214 186 174 171 171 173 176 171 165 171 185 192 194 194 193 188 183 179 175 171 172 172 172 171 172 172 170 165 155 138 106 90 94 64 14 10
128 134 113 89 48 320 265 200 211 242 256 238 255 282 308 325 327 324 320 316 315 319 318 305 301 309 313 312 312 308 302 301 297 272 242 226 221 221 222 219 214 209 207 208 207 202 203 205 203 201 208 213 203 186 173 170 173 172 165 166 177 188 194 198 199 196 192 187 181 176 174 175 176 178 183 185 183 180 171 155 137 117 107 93 43 21 21
148 166 135 128 184 223 224 214 223 271 306 295 268 288 317 329 333 334 327 320 320 323 321 317 315 311 308 312 314 308 301 300 293 271 254 246 239 234 233 230 222 217 212 205 199 199 198 198 200 202 207 217 213 195 177 172 171 165 162 170 182 190 196 202 202 198 192 187 181 176 175 176 178 182 183 175 165 157 147 140 131 121 112 83 47 37 31
183 203 196 176 182 167 139 137 207 278 300 299 291 309 326 332 332 326 308 303 312 315 310 312 317 315 308 306 304 298 294 293 289 279 271 265 256 246 239 233 226 220 214 203 194 193 194 197 199 203 211 220 215 201 184 173 168 165 167 176 186 194 198 201 199 193 186 182 177 174 172 170 169 169 167 162 155 145 138 135 130 122 109 83 60 49 33
207 197 170 149 128 123 130 158 210 249 277 296 313 319 317 310 305 298 292 297 304 302 300 304 309 311 310 305 299 295 291 288 289 291 289 281 266 250 237 225 212 205 204 200 193 191 195 197 199 205 216 220 215 205 190 175 170 172 175 182 192 198 198 192 186 180 176 174 172 169 165 161 161 162 163 163 157 145 139 136 130 122 110 82 56 39 27
173 157 137 122 117 135 167 199 227 254 267 279 292 295 294 293 287 285 290 296 296 295 300 304 304 303 302 301 301 301 297 294 293 294 295 288 269 246 230 216 203 200 203 201 195 194 198 198 198 207 218 216 212 207 194 182 178 179 180 185 192 191 184 177 173 171 169 168 166 163 159 158 161 165 167 167 157 148 144 140 134 128 117 87 58 43 39
138 136 133 135 134 150 199 228 240 264 276 282 287 285 276 271 279 283 287 289 290 294 298 300 298 298 298 300 303 304 301 299 298 296 297 294 272 241 226 217 211 210 211 207 200 198 199 198 198 209 217 214 209 205 197 189 185 181 181 183 182 176 171 169 167 167 167 165 163 162 161 162 166 169 169 166 161 157 152 146 141 138 126 99 76 62 61
146 159 228 236 215 229 262 252 225 240 265 271 273 277 272 261 261 267 274 280 285 290 292 292 295 299 301 302 301 300 301 303 302 298 300 297 276 244 224 215 213 216 218 213 206 203 203 201 200 207 211 207 202 200 197 191 183 178 177 177 173 169 167 167 167 167 166 165 164 166 167 169 171 170 165 163 167 165 158 150 149 147 132 111 97 85 79
168 178 198 199 186 197 229 232 215 228 260 270 272 277 279 271 265 269 276 281 282 285 290 295 300 303 304 300 295 296 300 303 300 299 302 300 281 250 226 213 212 217 220 216 211 208 207 205 203 202 200 196 194 194 192 186 179 175 173 171 169 168 168 168 169 169 168 166 166 168 168 167 169 170 169 171 174 169 161 155 156 154 138 124 115 102 90
160 154 158 157 158 174 192 205 218 232 252 273 281 283 285 284 283 282 284 284 283 286 293 298 302 303 299 291 285 287 285 281 283 291 297 293 273 246 224 211 209 213 214 213 213 211 208 206 202 196 189 186 186 187 186 182 178 174 172 171 170 169 168 169 171 172 172 170 168 167 165 165 169 176 181 182 176 169 163 160 161 159 148 135 126 117 103
144 128 120 130 166 202 219 232 239 240 243 258 274 285 293 296 294 291 289 288 288 291 295 298 299 296 288 274 267 269 271 273 279 286 289 285 264 236 216 208 207 205 203 208 212 210 205 200 196 189 182 179 181 184 184 181 177 174 171 171 170 168 167 168 170 172 174 173 169 165 164 165 173 182 185 181 174 169 166 163 165 165 158 147 139 132 118
129 119 125 148 254 254 248 249 252 255 261 268 274 282 290 293 293 292 290 290 290 291 294 295 293 287 279 271 266 265 266 269 274 278 281 274 250 223 209 206 204 199 198 207 210 205 200 197 192 186 180 178 181 184 183 180 175 171 169 169 168 166 166 168 168 169 170 168 165 166 167 169 173 178 179 178 174 170 168 168 171 171 166 158 150 145 135
109 111 131 257 275 265 265 273 277 273 273 278 282 283 282 284 288 291 291 290 290 291 292 292 290 286 281 275 266 259 260 263 265 267 266 256 235 217 208 205 201 200 207 214 211 203 197 194 189 184 181 181 183 184 182 177 172 169 168 169 169 168 169 171 172 169 168 168 167 170 173 174 174 175 177 178 175 173 172 174 175 174 175 172 163 155 145
105 134 250 265 270 273 282 291 290 281 273 273 277 279 279 281 285 288 289 290 293 295 293 291 290 286 280 272 261 253 255 257 254 250 248 240 226 218 216 215 213 213 216 218 210 199 194 190 187 184 184 184 184 183 180 176 172 170 171 172 172 171 173 177 175 169 168 170 172 174 177 179 179 179 179 178 176 176 177 177 173 174 181 182 167 154 141
217 251 262 271 279 287 293 294 292 290 286 276 273 276 281 283 286 288 290 293 298 301 298 293 288 279 269 265 261 258 257 255 247 241 238 231 222 220 222 224 222 219 218 215 206 197 192 189 187 186 186 186 184 183 180 177 175 175 176 177 175 175 178 182 178 172 170 171 174 176 180 182 183 181 179 179 179 179 179 177 173 172 175 169 157 146 137
248 264 276 282 284 289 294 295 295 297 295 288 280 279 282 284 286 288 293 298 302 304 301 293 284 273 266 263 263 263 262 256 246 238 229 219 212 211 220 230 226 218 211 206 201 195 191 190 191 189 187 185 185 184 181 179 179 180 181 180 178 178 181 183 182 178 174 173 177 182 183 184 186 185 181 179 180 181 180 178 174 170 168 162 154 146 141
280 288 290 287 290 295 297 297 297 297 297 296 292 290 291 293 292 291 295 300 302 303 302 295 285 281 276 271 267 265 259 251 243 236 226 216 211 210 218 230 227 214 199 196 199 196 192 193 194 190 186 185 187 187 186 184 183 183 183 181 181 183 185 186 186 185 181 179 183 188 189 189 189 187 183 181 182 183 182 179 174 169 166 163 157 151 148
300 301 294 291 296 301 302 298 294 292 294 300 305 307 307 306 301 298 301 305 305 305 305 299 292 289 283 274 267 263 254 242 235 232 227 223 223 223 223 224 218 204 194 194 200 200 198 197 194 189 187 188 190 190 189 186 184 184 184 183 184 188 190 190 190 189 187 186 189 193 195 194 193 191 188 185 184 185 186 184 178 172 169 165 160 156 154
319 310 295 291 298 305 304 299 296 294 297 305 313 317 316 315 314 312 312 311 307 304 303 299 293 289 282 270 263 261 254 236 221 220 222 222 224 222 218 215 212 204 197 193 194 196 199 198 192 188 189 192 191 189 186 183 181 182 183 182 184 188 190 190 188 187 188 191 196 200 201 199 197 197 194 188 186 188 190 187 181 176 172 167 163 160 160
323 306 289 291 302 312 310 305 305 306 306 310 316 321 323 324 323 321 318 312 305 301 300 296 289 285 280 270 261 258 254 240 223 218 217 212 210 211 208 206 208 206 200 194 191 193 197 196 191 188 191 193 191 188 185 182 181 182 182 182 184 187 190 190 189 187 187 193 201 206 204 202 201 201 199 194 191 192 192 188 183 180 176 172 169 168 168
357 17 3 343 334 332 329 326 324 321 317 316 320 325 330 330 326 322 319 310 302 299 298 293 286 281 277 272 266 263 257 244 231 227 226 223 220 217 211 207 206 206 201 196 193 194 196 194 190 189 192 193 193 192 190 187 186 187 187 185 185 187 190 193 194 191 189 195 203 207 206 204 204 204 202 198 195 194 192 188 184 182 180 177 175 173 173
45 39 27 14 3 353 347 343 337 329 324 322 322 326 331 331 326 320 315 309 302 299 298 293 287 282 277 272 266 262 255 239 225 226 229 227 222 214 206 201 201 200 197 194 195 199 199 195 190 190 194 196 196 197 197 194 192 192 190 188 187 190 193 198 200 197 194 197 204 208 208 206 205 204 202 199 196 194 192 189 185 183 181 179 176 174 173
38 30 21 14 10 2 355 349 338 325 320 321 321 324 329 329 324 318 314 311 307 304 301 296 288 283 279 274 267 261 254 240 220 216 220 217 208 197 193 194 196 195 192 191 194 200 200 196 192 194 197 199 201 202 201 198 196 194 192 190 192 198 202 204 202 200 198 199 204 207 207 206 205 204 201 199 197 195 193 190 186 184 182 179 177 174 172
36 30 22 14 7 358 351 345 334 320 318 319 317 318 323 325 321 317 317 315 310 306 303 298 292 287 283 279 274 265 256 247 235 224 216 207 196 191 193 195 195 192 188 188 192 197 197 195 194 197 200 202 204 205 203 199 197 195 192 193 198 203 205 202 198 196 198 202 208 211 210 208 206 203 201 199 197 196 194 191 188 185 183 183 181 177 172
30 27 20 9 358 349 340 332 322 318 320 319 315 315 320 324 320 316 319 318 312 307 304 301 297 293 291 286 278 269 258 249 240 229 216 204 195 192 194 196 193 190 189 190 192 194 193 192 193 196 199 202 203 202 199 197 195 193 192 196 201 202 199 196 195 196 199 205 210 212 211 208 205 202 199 198 197 196 194 192 190 188 187 188 187 181 176
26 20 11 359 351 349 348 344 339 333 330 327 323 320 321 323 320 317 319 320 317 313 312 307 301 300 301 294 277 261 249 241 231 220 210 202 194 190 191 192 190 187 188 189 190 189 189 189 190 193 197 199 199 197 195 194 192 191 192 197 199 196 193 194 196 199 202 204 204 204 205 204 202 200 198 198 198 197 194 193 193 192 191 192 191 186 180
22 17 11 4 3 7 10 10 6 359 351 345 340 333 330 330 326 320 319 322 320 316 313 307 299 299 304 297 276 255 242 230 219 212 207 199 191 186 187 189 185 182 183 185 187 187 187 186 187 191 195 196 195 194 193 192 190 189 192 195 193 190 190 194 198 201 201 199 197 197 200 201 201 200 199 199 199 198 196 195 196 196 195 195 194 189 184